Cadillac, MI

10:11 PM EDT on April 26, 2017 (GMT -0400)
Wexford County

Weather History for KCAD - January, 2013

Change the Weather History Date:

Tuesday, January 29, 2013

  Actual Average Record
Temperature  
Mean Temperature 40 °F -  
Max Temperature 49 °F 25 °F 91 °F (1999)
Min Temperature 32 °F 9 °F -36 °F (1951)
Degree Days  
Heating Degree Days 24    
Moisture  
Dew Point 38 °F    
Average Humidity 92    
Maximum Humidity 93    
Minimum Humidity 90    
Precipitation  
Precipitation 0.00 in - - ()
Sea Level Pressure  
Sea Level Pressure 29.63 in    
Wind  
Wind Speed 8 mph (SSE)    
Max Wind Speed 15 mph    
Max Gust Speed 18 mph    
Visibility 5 miles    
Events Fog , Rain , Snow    
Averages and records for this station are not official NWS values.
T = Trace of Precipitation, MM = Missing Value Source: NWS Daily Summary

Daily Weather History Graph

Daily Weather History Graph

Search for Another Location

Airport or City:

Trip Planner

Search our weather history database for the weather conditions in past years. The results will help you decide how hot, cold, wet, or windy it might be!

Date:

Astronomy

Jan. 29, 2013 Rise Set
Actual Time 8:02 AM EST 5:47 PM EST
Civil Twilight 7:31 AM EST 6:18 PM EST
Nautical Twilight 6:56 AM EST 6:53 PM EST
Astronomical Twilight 6:22 AM EST 7:27 PM EST
Moon 8:52 PM EST (1/29) 8:51 AM EST (1/29)
Length of Visible Light 10h 47m
Length of Day
9h 44m
Waning Gibbous, 94% of the Moon is Illuminated
Jan 29
Waning Gibbous
Feb 3
Last Quarter
Feb 10
New
Feb 17
First Quarter
Feb 25
Full

Hourly Weather History & Observations

Time (EST) Temp. Windchill Dew Point Humidity Pressure Visibility Wind Dir Wind Speed Gust Speed Precip Events Conditions
12:14 AM 33.8 °F 27.7 °F 31.5 °F 91% 29.93 in 10.0 mi SSE 6.9 mph - N/A   Overcast
12:35 AM 33.8 °F 27.0 °F 31.5 °F 91% 29.91 in 10.0 mi SE 8.1 mph - N/A   Overcast
1:00 AM 33.4 °F 25.9 °F 31.3 °F 92% 29.89 in 10.0 mi SE 9.2 mph - N/A   Overcast
1:14 AM 33.1 °F 25.5 °F 30.9 °F 92% 29.88 in 10.0 mi SE 9.2 mph - N/A   Overcast
1:35 AM 33.1 °F 26.9 °F 31.1 °F 92% 29.87 in 10.0 mi SE 6.9 mph - N/A   Overcast
1:55 AM 32.5 °F 23.2 °F 30.4 °F 92% 29.85 in 10.0 mi ESE 12.7 mph - N/A   Overcast
2:14 AM 32.4 °F 23.5 °F 30.2 °F 92% 29.85 in 10.0 mi SE 11.5 mph - N/A   Overcast
2:35 AM 32.4 °F 24.6 °F 30.2 °F 92% 29.84 in 10.0 mi ESE 9.2 mph - N/A   Overcast
2:55 AM 32.4 °F 23.0 °F 30.2 °F 92% 29.84 in 10.0 mi SE 12.7 mph - N/A   Overcast
3:15 AM 32.7 °F 25.0 °F 30.7 °F 92% 29.85 in 10.0 mi SE 9.2 mph - N/A   Overcast
3:55 AM 32.7 °F 25.7 °F 30.7 °F 92% 29.80 in 10.0 mi SE 8.1 mph - N/A   Overcast
4:15 AM 33.8 °F 25.8 °F 31.1 °F 90% 29.80 in 10.0 mi ESE 10.4 mph - N/A   Overcast
4:35 AM 33.8 °F 25.3 °F 31.1 °F 90% 29.78 in 10.0 mi ESE 11.5 mph - N/A   Overcast
5:00 AM 33.8 °F 25.3 °F 31.5 °F 91% 29.77 in 3.0 mi SE 11.5 mph - N/A   Overcast
5:15 AM 33.8 °F 25.8 °F 31.5 °F 91% 29.76 in 5.0 mi ESE 10.4 mph - N/A Snow Light Snow
5:35 AM 33.8 °F 25.8 °F 31.1 °F 90% 29.77 in 4.0 mi SE 10.4 mph - N/A   Overcast
5:55 AM 33.8 °F 23.9 °F 31.5 °F 91% 29.71 in 4.0 mi ESE 15.0 mph - N/A Snow Light Snow
6:15 AM 33.8 °F 24.8 °F 31.5 °F 91% 29.70 in 10.0 mi ESE 12.7 mph 16.1 mph N/A   Overcast
6:34 AM 36.1 °F 29.9 °F 33.4 °F 90% 29.72 in 10.0 mi SE 8.1 mph - N/A   Overcast
7:15 AM 36.1 °F 29.3 °F 33.4 °F 90% 29.69 in 10.0 mi SE 9.2 mph 16.1 mph N/A   Overcast
7:34 AM 36.1 °F 27.7 °F 33.4 °F 90% 29.67 in 10.0 mi SE 12.7 mph 17.3 mph N/A   Overcast
7:55 AM 36.1 °F 28.2 °F 33.4 °F 90% 29.67 in 10.0 mi SE 11.5 mph - N/A   Overcast
8:15 AM 36.1 °F 29.9 °F 33.4 °F 90% 29.67 in 10.0 mi SE 8.1 mph 18.4 mph N/A   Overcast
8:34 AM 36.1 °F 28.7 °F 33.8 °F 91% 29.67 in 10.0 mi SE 10.4 mph - N/A   Overcast
8:55 AM 36.1 °F 29.9 °F 33.8 °F 91% 29.67 in 10.0 mi SE 8.1 mph - N/A   Overcast
9:15 AM 37.0 °F 31.6 °F 34.7 °F 91% 29.66 in 3.0 mi SE 6.9 mph - N/A   Overcast
9:35 AM 38.7 °F 30.9 °F 36.5 °F 92% 29.65 in 4.0 mi SSE 12.7 mph - N/A   Overcast
9:55 AM 37.4 °F 33.8 °F 35.1 °F 91% 29.66 in 3.0 mi SSE 4.6 mph - N/A   Overcast
10:15 AM 37.4 °F 34.9 °F 35.1 °F 91% 29.66 in 2.0 mi SSE 3.5 mph - N/A Rain Light Rain
10:35 AM 37.9 °F 33.5 °F 35.6 °F 91% 29.66 in 2.5 mi South 5.8 mph - N/A Rain Rain
10:55 AM 38.7 °F 32.9 °F 36.5 °F 92% 29.65 in 10.0 mi South 8.1 mph - N/A Rain Light Rain
11:15 AM 38.7 °F 36.3 °F 36.5 °F 92% 29.65 in 10.0 mi South 3.5 mph - N/A Rain Light Rain
11:35 AM 38.8 °F - 36.5 °F 91% 29.63 in 10.0 mi Calm Calm - N/A   Overcast
11:55 AM 40.1 °F - 37.8 °F 91% 29.62 in 3.0 mi Calm Calm - N/A   Overcast
12:15 PM 41.2 °F 38.2 °F 38.8 °F 91% 29.61 in 0.2 mi South 4.6 mph - N/A Fog Fog
12:35 PM 41.2 °F 37.3 °F 39.0 °F 92% 29.60 in 0.2 mi South 5.8 mph - N/A Fog Fog
12:55 PM 42.4 °F 38.1 °F 40.1 °F 91% 29.59 in 0.2 mi SSW 6.9 mph - N/A Fog Fog
1:15 PM 42.4 °F 37.5 °F 40.1 °F 91% 29.58 in 0.2 mi SSW 8.1 mph - N/A Fog Fog
1:35 PM 42.6 °F 37.2 °F 40.3 °F 91% 29.57 in 0.2 mi South 9.2 mph - N/A Fog Fog
1:55 PM 43.5 °F 38.9 °F 41.4 °F 92% 29.56 in 0.2 mi South 8.1 mph - N/A Fog Fog
2:15 PM 43.3 °F 38.1 °F 41.0 °F 91% 29.56 in 0.2 mi South 9.2 mph - N/A Fog Fog
2:35 PM 43.9 °F 39.9 °F 41.9 °F 93% 29.56 in 0.2 mi South 6.9 mph - N/A Rain Heavy Rain
2:55 PM 43.9 °F 39.9 °F 41.9 °F 93% 29.55 in 0.5 mi SSW 6.9 mph - N/A   Drizzle
3:14 PM 43.9 °F 40.5 °F 41.7 °F 92% 29.56 in 0.2 mi SSW 5.8 mph - N/A Rain Light Rain
3:35 PM 44.4 °F 40.5 °F 42.1 °F 91% 29.55 in 0.2 mi South 6.9 mph - N/A Fog Fog
3:55 PM 43.9 °F 39.9 °F 41.9 °F 93% 29.54 in 0.2 mi SSW 6.9 mph - N/A Fog Fog
4:14 PM 45.0 °F 42.6 °F 43.0 °F 93% 29.54 in 0.2 mi South 4.6 mph - N/A Rain Rain
4:55 PM 45.1 °F 42.0 °F 43.0 °F 92% 29.54 in 0.2 mi South 5.8 mph - N/A Rain Light Rain
5:14 PM 46.4 °F 45.2 °F 44.2 °F 92% 29.53 in 0.2 mi SSW 3.5 mph - N/A Rain Light Rain
5:35 PM 45.7 °F - 43.5 °F 92% 29.52 in 0.2 mi Calm Calm - N/A Rain Rain
5:55 PM 45.7 °F - 43.5 °F 92% 29.51 in 0.2 mi Calm Calm - N/A   Drizzle
6:14 PM 44.1 °F - 42.1 °F 93% 29.53 in 0.2 mi Calm Calm - N/A Rain Rain
6:35 PM 46.6 °F - 44.4 °F 92% 29.51 in 0.5 mi SE 8.1 mph - N/A Rain Rain
6:55 PM 49.1 °F - 46.8 °F 92% 29.52 in 1.2 mi SW 4.6 mph - N/A Rain Rain
7:14 PM 48.9 °F - 46.8 °F 92% 29.50 in 0.5 mi South 3.5 mph - N/A Rain Light Rain
7:35 PM 49.1 °F - 46.8 °F 92% 29.49 in 0.5 mi Calm Calm - N/A Rain Rain
7:55 PM 48.4 °F - 46.2 °F 92% 29.50 in 0.2 mi South 4.6 mph - N/A Rain Rain
8:14 PM 47.8 °F - 45.7 °F 92% 29.49 in 0.8 mi WNW 6.9 mph - N/A Rain Heavy Rain
8:35 PM 47.8 °F - 45.5 °F 92% 29.49 in 2.0 mi NW 8.1 mph - N/A Rain Heavy Rain
8:55 PM 48.9 °F - 46.6 °F 92% 29.48 in 5.0 mi Calm Calm - N/A Rain Rain
9:15 PM 45.1 °F 42.0 °F 43.0 °F 92% 29.46 in 1.0 mi North 5.8 mph - N/A Rain Rain
9:35 PM 45.1 °F 42.8 °F 43.0 °F 92% 29.44 in 4.0 mi North 4.6 mph - N/A Rain Light Rain
9:55 PM 44.4 °F - 42.3 °F 92% 29.46 in 1.2 mi Calm Calm - N/A Rain Rain
10:15 PM 44.1 °F - 42.1 °F 93% 29.46 in 0.8 mi Calm Calm - N/A Rain Rain
10:35 PM 43.9 °F - 41.9 °F 93% 29.44 in 0.8 mi Calm Calm - N/A Rain Rain
10:55 PM 43.9 °F 41.3 °F 41.9 °F 93% 29.41 in 0.8 mi North 4.6 mph - N/A Rain Rain
11:15 PM 43.9 °F 42.3 °F 41.7 °F 92% 29.41 in 10.0 mi NNE 3.5 mph - N/A Rain Light Rain
11:35 PM 41.7 °F 38.8 °F 39.6 °F 92% 29.41 in 10.0 mi North 4.6 mph - N/A Rain Rain
11:54 PM 41.2 °F 39.2 °F 39.2 °F 93% 29.40 in 10.0 mi North 3.5 mph - N/A Rain Rain